Location: Newark
(50.4348°N, 30.5552°E)
Time: 22:45:44
(UTC+00:00)

Envisat - Pass Details

Date: 13 December 2019
Orbit: 764 x 766 km, 98.1° (Epoch: 21 January)

Event Time Altitude Azimuth Distance (km) Brightness Sun altitude
Rises 04:25:57 0° 18° (NNE) 3,246 6.2 -12.4°
Reaches altitude 10° 04:28:22 10° 24° (NNE) 2,315 5.5 -12.1°
Maximum altitude 04:33:18 48° 99° (E) 998 4.1 -11.4°
Drops below altitude 10° 04:38:11 10° 173° (S) 2,297 5.9 -10.6°
Sets 04:40:33 0° 179° (S) 3,218 6.6 -10.3°
